{"data":{"norad_id":52940,"intl_designator":"2022-073A","name":"WFOV (USA 332)","alt_names":[],"object_type":"PAYLOAD","status":"ACTIVE","operator":null,"country":"US","launch_date":"2022-07-01","launch_site_code":"AFETR","launch_vehicle":null,"mission":null,"orbit_class":"UNKNOWN","rcs_meters":null,"size_class":null,"mass_kg":null,"dimensions":null,"purposes":["comms"],"wikipedia_slug":null,"has_3d_model":false,"image_url":null,"decayed_at":null,"tle_current":{"epoch":"2026-09-19T22:40:11.032896Z","epoch_age_seconds":73819,"freshness":"FRESH","line1":"1 52940U 22073A   26262.94457214 -.00000365  00000+0  00000+0 0  9991","line2":"2 52940   3.9470  77.2616 0002137 161.6764 219.2440  1.00275826 15322","mean_motion":1.00275826,"eccentricity":0.0002137,"inclination_deg":3.947,"raan_deg":77.2616,"arg_perigee_deg":161.6764,"mean_anomaly_deg":219.244,"bstar":0,"rev_number":1532,"period_min":1436.0390309824,"perigee_km":35776.451799101,"apogee_km":35794.472521382,"semimajor_km":42163.599160242,"source":"CELESTRAK","updated_at":"2026-09-20T09:00:35.304912Z"}}}